Flag for Italy Weather past 2 weeks in Cagliari, Italy

Now
57 °F

Clear.


Feels Like: 56 °F
Forecast: 58 / 74 °F
Wind: 7 mph from Northwest

Location: Cagliari / Elmas

Current Time: Oct 25, 2014 at 2:17:13 AM

Latest Report: Oct 25, 2014 at 1:50 AM


Visibility: 10 mi

Pressure: 30.01 "Hg

Humidity: 94%

Dew point: 55 °F

Location of CagliariLocation

Historic Weather in Cagliari — Graph

°F

Cagliari temperature yesterday

Maximum temperature yesterday: 77 °F (at 2:50 PM)
Minimum temperature yesterday: 52 °F (at 5:20 AM)
Average temperature yesterday: 63 °F

Past Weeks' High & Low Weather Summary

 TemperatureHumidityPressure
High88 °F (Oct 13, 1:20 PM)100% (Oct 10, 12:50 AM)30.27 "Hg (Oct 10, 12:50 AM)
Low52 °F (Oct 24, 5:20 AM)29% (Oct 18, 1:50 PM)29.68 "Hg (Oct 14, 8:20 PM)
Average71 °F77%30.00 "Hg
* Reported Oct 10 12:20 AM — Oct 25 12:50 AM, Cagliari, Weather by CustomWeather, © 2014

Note: Actual official high and low records may vary slightly from our data, if they occured in-between our weather recording intervals... More about our weather records

Advertising

Cagliari weather history for previous 24 hours

 ConditionsComfort  
Time TempWeatherWind HumidityBarometerVisibility
12:50 AM
Oct 25
57 °FClear.7 mph94%30.01 "Hg10 mi
12:20 AM59 °FClear.5 mph88%30.01 "Hg10 mi
11:50 PM
Oct 24
61 °FClear.6 mph83%30.01 "Hg10 mi
11:20 PM61 °FClear.7 mph83%30.01 "Hg10 mi
10:50 PM63 °FClear.6 mph77%30.01 "Hg10 mi
10:20 PM63 °FPassing clouds.5 mph73%30.01 "HgN/A
9:50 PM64 °FClear.6 mph68%29.98 "Hg10 mi
9:20 PM64 °FClear.7 mph68%29.98 "Hg10 mi
8:50 PM64 °FClear.7 mph64%29.98 "Hg10 mi
8:20 PM66 °FPassing clouds.3 mph60%29.98 "HgN/A
7:50 PM68 °FPassing clouds.6 mph64%29.95 "HgN/A
7:20 PM68 °FPassing clouds.9 mph60%29.95 "HgN/A
6:50 PM70 °FSunny.10 mph57%29.95 "Hg10 mi
6:20 PM70 °FSunny.12 mph57%29.92 "Hg10 mi
5:50 PM72 °FSunny.13 mph57%29.92 "Hg10 mi
5:20 PM72 °FSunny.14 mph47%29.92 "Hg10 mi
4:50 PM73 °FSunny.14 mph50%29.92 "Hg10 mi
4:20 PM75 °FPassing clouds.9 mph41%29.92 "HgN/A
3:50 PM77 °FPassing clouds.6 mph36%29.89 "HgN/A
3:20 PM77 °FPassing clouds.6 mph30%29.89 "HgN/A
2:50 PM77 °FPassing clouds.6 mph32%29.92 "HgN/A
2:20 PM75 °FPassing clouds.6 mph36%29.92 "HgN/A
1:50 PM75 °FPassing clouds.6 mph41%29.92 "HgN/A
1:20 PM73 °FPassing clouds.7 mph44%29.95 "HgN/A
12:50 PM72 °FSunny.9 mph50%29.95 "Hg10 mi
12:20 PM70 °FSunny.8 mph60%29.95 "Hg10 mi
11:50 AM68 °FSunny.9 mph64%29.95 "Hg10 mi
11:20 AM66 °FPassing clouds.8 mph68%29.95 "HgN/A
10:50 AM64 °FSunny.8 mph73%29.95 "Hg10 mi
10:20 AM61 °FSunny.9 mph77%29.95 "Hg10 mi
9:50 AM57 °FPassing clouds.10 mph88%29.95 "HgN/A
9:20 AM55 °FSunny.9 mph88%29.92 "Hg10 mi
8:50 AM54 °FSunny.8 mph94%29.92 "Hg10 mi
8:20 AM52 °FClear.7 mph94%29.92 "Hg10 mi
7:50 AM52 °FClear.9 mph94%29.89 "Hg10 mi
7:20 AM52 °FClear.9 mph94%29.89 "Hg10 mi
6:50 AM52 °FClear.9 mph94%29.89 "Hg10 mi
6:20 AM52 °FClear.9 mph94%29.89 "Hg10 mi
5:50 AM52 °FClear.8 mph94%29.89 "Hg10 mi
5:20 AM52 °FClear.8 mph94%29.89 "Hg10 mi
4:50 AM54 °FPassing clouds.5 mph88%29.86 "HgN/A
4:20 AM54 °FClear.7 mph88%29.86 "Hg10 mi
3:50 AM54 °FClear.7 mph88%29.89 "Hg10 mi
3:20 AM54 °FClear.8 mph88%29.89 "Hg10 mi
2:50 AM55 °FClear.7 mph88%29.86 "Hg10 mi
2:20 AM57 °FClear.3 mph88%29.89 "Hg10 mi
Weather by CustomWeather, © 2014

See weather overviewHow to use our weather pages